Weather History for PARC - October, 2012

Change the Weather History Date:

Friday, October 12, 2012

  Actual Average Record
Temperature  
Mean Temperature 18 °F -  
Max Temperature 26 °F 22 °F 35 °F (1962)
Min Temperature 10 °F 0 °F -35 °F (1970)
Degree Days  
Heating Degree Days 47    
Moisture  
Dew Point 10 °F    
Average Humidity 71    
Maximum Humidity 100    
Minimum Humidity 47    
Precipitation  
Precipitation 0.00 in - - ()
Sea Level Pressure  
Sea Level Pressure 29.59 in    
Wind  
Wind Speed 3 mph (NE)    
Max Wind Speed 10 mph    
Max Gust Speed -    
Visibility 10 miles    
Events      
Averages and records for this station are not official NWS values.
T = Trace of Precipitation, MM = Missing Value Source: NWS Daily Summary

Daily Weather History Graph

Daily Weather History Graph

Search for Another Location

Airport or City:

Trip Planner

Search our weather history database for the weather conditions in past years. The results will help you decide how hot, cold, wet, or windy it might be!

Date:

Astronomy

Oct. 12, 2012 Rise Set
Actual Time 8:38 AM AKDT 6:17 PM AKDT
Civil Twilight 7:41 AM AKDT 7:14 PM AKDT
Nautical Twilight 6:36 AM AKDT 8:18 PM AKDT
Astronomical Twilight 5:28 AM AKDT 9:25 PM AKDT
Moon 4:20 AM AKDT (10/12) 5:25 PM AKDT (10/12)
Length of Visible Light 11h 33m
Length of Day
9h 39m
Waning Crescent, 10% of the Moon is Illuminated
Oct 12
Waning Crescent
Oct 15
New
Oct 21
First Quarter
Oct 29
Full
Nov 6
Last Quarter

Hourly Weather History & Observations

Time (AKDT) Temp. Windchill Dew Point Humidity Pressure Visibility Wind Dir Wind Speed Gust Speed Precip Events Conditions
1:36 AM 15.8 °F - 12.2 °F 86% 29.66 in 10.0 mi Calm Calm - N/A   Partly Cloudy
1:56 AM 15.8 °F - 12.2 °F 86% 29.65 in 10.0 mi Calm Calm - N/A   Partly Cloudy
2:16 AM 15.8 °F - 12.2 °F 86% 29.64 in 10.0 mi Calm Calm - N/A   Scattered Clouds
2:36 AM 14.0 °F 8.2 °F 12.2 °F 93% 29.64 in 10.0 mi NW 3.5 mph - N/A   Partly Cloudy
2:56 AM 14.0 °F - 14.0 °F 100% 29.64 in 10.0 mi Calm Calm - N/A   Clear
3:16 AM 14.0 °F - 12.2 °F 93% 29.63 in 10.0 mi Calm Calm - N/A   Clear
3:36 AM 15.8 °F - 12.2 °F 86% 29.63 in 10.0 mi Calm Calm - N/A   Clear
4:16 AM 12.2 °F - 12.2 °F 100% 29.63 in 10.0 mi Calm Calm - N/A   Clear
4:36 AM 12.2 °F 6.1 °F 10.4 °F 92% 29.62 in 10.0 mi North 3.5 mph - N/A   Clear
4:56 AM 10.4 °F - 6.8 °F 85% 29.62 in 10.0 mi Calm Calm - N/A   Clear
5:16 AM 10.4 °F - 5.0 °F 79% 29.61 in 10.0 mi Calm Calm - N/A   Clear
5:36 AM 10.4 °F 4.0 °F 6.8 °F 85% 29.61 in 10.0 mi North 3.5 mph - N/A   Partly Cloudy
5:56 AM 12.2 °F 4.3 °F 8.6 °F 85% 29.60 in 10.0 mi NE 4.6 mph - N/A   Mostly Cloudy
6:16 AM 12.2 °F - 12.2 °F 100% 29.61 in 10.0 mi Calm Calm - N/A   Overcast
6:36 AM 12.2 °F - 12.2 °F 100% 29.60 in 10.0 mi Calm Calm - N/A   Overcast
6:56 AM 12.2 °F - 12.2 °F 100% 29.60 in 10.0 mi Calm Calm - N/A   Overcast
7:16 AM 12.2 °F - 12.2 °F 100% 29.60 in 10.0 mi Calm Calm - N/A   Overcast
7:36 AM 14.0 °F - 10.4 °F 86% 29.60 in 10.0 mi Calm Calm - N/A   Overcast
7:56 AM 14.0 °F - 10.4 °F 86% 29.60 in 10.0 mi Calm Calm - N/A   Overcast
8:16 AM 12.2 °F - 10.4 °F 92% 29.60 in 10.0 mi Calm Calm - N/A   Mostly Cloudy
8:36 AM 12.2 °F 6.1 °F 10.4 °F 92% 29.60 in 10.0 mi WNW 3.5 mph - N/A   Mostly Cloudy
8:56 AM 12.2 °F - 10.4 °F 92% 29.60 in 10.0 mi Calm Calm - N/A   Partly Cloudy
9:16 AM 14.0 °F - 8.6 °F 79% 29.60 in 10.0 mi Calm Calm - N/A   Partly Cloudy
9:36 AM 14.0 °F - 10.4 °F 86% 29.60 in 10.0 mi Calm Calm - N/A   Mostly Cloudy
9:56 AM 15.8 °F - 10.4 °F 79% 29.59 in 10.0 mi Calm Calm - N/A   Overcast
11:16 AM 17.6 °F - 14.0 °F 86% 29.59 in 10.0 mi Calm Calm - N/A   Scattered Clouds
11:36 AM 17.6 °F 12.3 °F 12.2 °F 79% 29.59 in 10.0 mi ENE 3.5 mph - N/A   Scattered Clouds
11:56 AM 19.4 °F - 12.2 °F 74% 29.59 in 10.0 mi Calm Calm - N/A   Mostly Cloudy
12:16 PM 21.2 °F 14.9 °F 14.0 °F 74% 29.59 in 10.0 mi NE 4.6 mph - N/A   Mostly Cloudy
12:56 PM 23.0 °F 13.9 °F 10.4 °F 59% 29.59 in 10.0 mi ENE 8.1 mph - N/A   Overcast
1:16 PM 24.8 °F 16.9 °F 10.4 °F 54% 29.59 in 10.0 mi ENE 6.9 mph - N/A   Overcast
1:36 PM 24.8 °F 17.9 °F 10.4 °F 54% 29.59 in 10.0 mi NE 5.8 mph - N/A   Overcast
1:56 PM 24.8 °F 17.9 °F 10.4 °F 54% 29.58 in 10.0 mi NE 5.8 mph - N/A   Overcast
2:16 PM 26.6 °F 19.1 °F 8.6 °F 47% 29.58 in 10.0 mi East 6.9 mph - N/A   Overcast
2:36 PM 26.6 °F 18.2 °F 8.6 °F 47% 29.58 in 10.0 mi ENE 8.1 mph - N/A   Overcast
2:56 PM 26.6 °F 18.2 °F 10.4 °F 51% 29.58 in 10.0 mi NE 8.1 mph - N/A   Overcast
3:16 PM 26.6 °F 18.2 °F 8.6 °F 47% 29.58 in 10.0 mi NE 8.1 mph - N/A   Overcast
3:36 PM 24.8 °F 16.9 °F 8.6 °F 50% 29.58 in 10.0 mi NE 6.9 mph - N/A   Overcast
3:56 PM 24.8 °F 19.1 °F 8.6 °F 50% 29.57 in 10.0 mi NE 4.6 mph - N/A   Overcast
4:16 PM 24.8 °F 16.9 °F 8.6 °F 50% 29.57 in 10.0 mi NE 6.9 mph - N/A   Overcast
4:36 PM 24.8 °F 17.9 °F 8.6 °F 50% 29.57 in 10.0 mi NE 5.8 mph - N/A   Scattered Clouds
4:56 PM 24.8 °F 16.1 °F 8.6 °F 50% 29.57 in 10.0 mi NE 8.1 mph - N/A   Mostly Cloudy
5:16 PM 24.8 °F 16.9 °F 8.6 °F 50% 29.57 in 10.0 mi NE 6.9 mph - N/A   Overcast
5:36 PM 24.8 °F 16.9 °F 8.6 °F 50% 29.57 in 10.0 mi NE 6.9 mph - N/A   Overcast
5:56 PM 23.0 °F 15.8 °F 8.6 °F 54% 29.57 in 10.0 mi NE 5.8 mph - N/A   Overcast
6:16 PM 21.2 °F 11.7 °F 8.6 °F 58% 29.57 in 10.0 mi NE 8.1 mph - N/A   Overcast
6:36 PM 21.2 °F 10.9 °F 8.6 °F 58% 29.57 in 10.0 mi NE 9.2 mph - N/A   Overcast
6:56 PM 21.2 °F 10.9 °F 8.6 °F 58% 29.57 in 10.0 mi NE 9.2 mph - N/A   Overcast
7:16 PM 21.2 °F 11.7 °F 8.6 °F 58% 29.57 in 10.0 mi NE 8.1 mph - N/A   Overcast
7:36 PM 21.2 °F 12.6 °F 8.6 °F 58% 29.57 in 10.0 mi NE 6.9 mph - N/A   Overcast
7:56 PM 21.2 °F 10.9 °F 8.6 °F 58% 29.57 in 10.0 mi NE 9.2 mph - N/A   Overcast
8:16 PM 21.2 °F 11.7 °F 8.6 °F 58% 29.57 in 10.0 mi NE 8.1 mph - N/A   Overcast
8:36 PM 21.2 °F 11.7 °F 6.8 °F 54% 29.57 in 10.0 mi NE 8.1 mph - N/A   Overcast
8:56 PM 21.2 °F 10.1 °F 6.8 °F 54% 29.57 in 10.0 mi NE 10.4 mph - N/A   Overcast
9:16 PM 19.4 °F 8.6 °F 6.8 °F 58% 29.57 in 10.0 mi NE 9.2 mph - N/A   Overcast
10:16 PM 17.6 °F 9.3 °F 6.8 °F 63% 29.58 in 10.0 mi NE 5.8 mph - N/A   Overcast
10:36 PM 17.6 °F 10.7 °F 8.6 °F 68% 29.58 in 10.0 mi East 4.6 mph - N/A   Overcast
10:56 PM 17.6 °F 8.2 °F 6.8 °F 63% 29.58 in 10.0 mi ENE 6.9 mph - N/A   Overcast
11:16 PM 17.6 °F 7.3 °F 8.6 °F 68% 29.58 in 10.0 mi East 8.1 mph - N/A   Overcast
11:36 PM 17.6 °F 8.2 °F 6.8 °F 63% 29.57 in 10.0 mi NE 6.9 mph - N/A   Overcast
11:56 PM 15.8 °F 5.1 °F 6.8 °F 68% 29.57 in 10.0 mi NE 8.1 mph - N/A   Mostly Cloudy